Find Starlink 31595

NORAD ID: 59273 Int'l Des: 2024-050 Owner: SPXS Country: US Constellation: starlink operational
LEOCIRCULAR

Live-Position

3D-Globus wird geladen...

Über Starlink 31595

Beschreibung wird geladen...

Nächste Überflüge

Passes for default location (London). Set your location on the main map for personalized predictions.

Höhenverlauf

Loading altitude history...

Zweizeiliger Elementsatz

1 59273U 24050V 26132.59789786 -.00000230 00000-0 43534-5 0 9990
2 59273 53.1619 244.1313 0001205 93.9976 266.1163 15.30198925120339
Epoch: 12. Mai 2026 • Age: 19 hours

Aktueller Status

Höhe 480.8 km
Geschwindigkeit 7.63 km/s
Subsatellitenpunkt 52.46°N, 30.44°W
Startdatum 19. März 2024
Alter 2.1 years
Typ internet

Technische Details

Klassifizierung Payload
Masse 730.00 kg
Trockenmasse 700.00 kg
Gesamtmasse 730.00 kg
Länge 0.30 m
Durchmesser 4.10 m
Spannweite 29.00 m
Form Box + pan
Hersteller SPXS
Bus-Typ Starlink V2M
Phasenstatus In Orbit
Besitzer/Staat SPXS/US

Most Searched